This demonstration page uses our WeatherBlox Daily Observations layout. Learn more.

Left ArrowRight Arrow

31.31129, -92.44514

Hourly Observations for October 5, 2015

Temp ( °F °C ) Dew Point ( °F °C ) Humidity (%) Winds ( mph kmh ) Pressure ( in mb ) Visibility ( mi km ) Precip ( " mm )
12:53 am 00:53 Clear 57 13.9 53 11.7 87 87 NNE 3 6 29.98 1015 8 13 0.00 0.00
1:53 am 01:53 Clear 54 12.2 52 11.1 93 93 Calm 29.97 1015 8 13 0.00 0.00
2:53 am 02:53 Clear 55 12.8 53 11.7 93 93 WNW 3 6 29.97 1015 8 13 0.00 0.00
3:53 am 03:53 Clear 52 11.1 51 10.6 97 97 NW 5 7 29.96 1015 7 11 0.00 0.00
4:53 am 04:53 Clear 54 12.2 52 11.1 93 93 NNW 6 9 29.96 1015 7 11 0.00 0.00
5:53 am 05:53 Clear 54 12.2 53 11.7 97 97 NNW 6 9 29.98 1015 7 11 0.00 0.00
6:53 am 06:53 Clear 54 12.2 53 11.7 97 97 NNW 6 9 30.00 1016 7 11 0.00 0.00
7:53 am 07:53 Mostly Cloudy with Mist and Fog 55 12.8 54 12.2 96 96 NW 5 7 30.02 1017 4 6 0.00 0.00
8:05 am 08:05 Cloudy with Mist and Fog 56 13.3 54 12.2 93 93 N 6 9 30.03 1017 5 8 0.00 0.00
8:53 am 08:53 Cloudy with Mist and Fog 58 14.4 55 12.8 90 90 VRB 5 7 30.04 1017 6 10 0.00 0.00
9:53 am 09:53 Cloudy 61 16.1 56 13.3 84 84 ENE 7 11 30.05 1018 8 13 0.00 0.00
10:25 am 10:25 Cloudy 63 17.2 56 13.3 78 78 VRB 5 7 30.03 1017 9 14 0.00 0.00
10:53 am 10:53 Partly Cloudy 67 19.4 57 13.9 71 71 VRB 3 6 30.05 1018 10 16 0.00 0.00
11:53 am 11:53 Sunny 72 22.2 58 14.4 61 61 VRB 5 7 30.04 1017 10 16 0.00 0.00
12:53 pm 12:53 Sunny 76 24.4 59 15 56 56 VRB 3 6 30.01 1016 10 16 0.00 0.00
1:53 pm 13:53 Sunny 81 27.2 60 15.6 49 49 undefined N/A 29.98 1015 10 16 0.00 0.00
2:53 pm 14:53 Sunny 83 28.3 60 15.6 46 46 N 5 7 29.96 1014 10 16 0.00 0.00
3:53 pm 15:53 Mostly Sunny 84 28.9 61 16.1 46 46 NW 12 19 29.94 1014 10 16 0.00 0.00
4:53 pm 16:53 Mostly Sunny 84 28.9 60 15.6 44 44 NW 8 13 29.95 1014 10 16 0.00 0.00
5:53 pm 17:53 Mostly Cloudy 84 28.9 60 15.6 44 44 N 9 15 29.96 1014 10 16 0.00 0.00
6:53 pm 18:53 Clear 78 25.6 62 16.7 58 58 NNW 3 6 29.97 1015 10 16 0.00 0.00
7:53 pm 19:53 Clear 74 23.3 63 17.2 69 69 N 3 6 29.99 1016 10 16 0.00 0.00
8:53 pm 20:53 Clear 69 20.6 63 17.2 81 81 NNW 3 6 30.01 1016 10 16 0.00 0.00
9:53 pm 21:53 Clear 67 19.4 62 16.7 84 84 NNW 3 6 30.01 1016 10 16 0.00 0.00
10:53 pm 22:53 Clear 66 18.9 60 15.6 81 81 NNW 3 6 30.02 1017 10 16 0.00 0.00
11:53 pm 23:53 Clear 66 18.9 60 15.6 81 81 Calm 30.02 1017 10 16 0.00 0.00

Powered by AerisWeather